Theta_e
349 348 348 348 348 350 351 350 350 350 350 350 350 350 350 350 350 350 350 350 350 351 352 352 350 350 350 350 350 349 349 348 348 349 349 350 350 349 348 348 349 349 350 350 350 349 349 349 348 347 348 348 349 350 352 352 352 351 352 352 351 351 349 345 346 348 347 347 347 346 347 347 347 347 346 346 346 349 350 350 351 351 352 353 354
349 348 348 348 349 349 350 351 351 352 352 352 352 351 351 351 351 351 351 351 351 352 352 353 351 351 351 350 351 350 349 349 349 349 349 350 349 348 348 347 348 348 349 350 350 349 349 349 348 347 347 348 349 350 351 350 351 351 351 352 351 350 350 348 347 346 347 347 347 348 348 348 348 348 347 347 348 349 350 351 351 351 351 352 352
348 349 349 349 349 349 350 351 352 353 353 353 353 353 352 353 352 353 353 352 352 352 353 353 353 352 352 351 351 351 350 349 348 348 348 347 346 346 346 346 346 347 348 349 348 348 348 348 347 347 347 348 349 350 351 351 351 352 352 351 350 349 348 347 346 346 346 348 349 349 348 348 348 348 347 347 347 347 347 347 347 347 348 350 352
349 349 349 349 350 350 350 351 351 353 353 353 354 354 354 354 354 354 355 354 353 353 354 354 353 350 349 349 349 348 348 346 345 346 346 346 345 344 345 345 344 344 345 346 347 346 346 347 348 347 346 348 350 350 351 351 351 351 351 350 349 348 348 347 347 346 346 347 348 349 349 348 348 348 347 346 346 345 344 345 346 346 347 349 350
349 350 350 351 351 351 351 351 351 352 352 354 354 354 354 355 356 356 356 356 356 354 353 352 351 350 350 350 348 347 348 347 346 347 347 347 347 345 345 345 345 344 345 346 346 346 346 346 347 348 348 348 349 350 350 350 351 350 349 348 347 348 348 347 347 346 346 346 347 348 349 348 348 348 347 346 346 345 345 345 346 347 347 349 349
350 351 351 351 351 351 352 351 352 352 353 355 355 355 354 355 356 357 356 357 356 353 351 351 351 352 351 350 349 348 349 348 348 348 348 348 348 346 345 345 344 345 345 345 346 346 346 346 346 347 347 348 348 349 349 350 350 350 349 348 347 347 347 346 346 346 345 346 346 347 348 347 347 347 347 347 347 347 347 347 346 346 347 348 348
351 351 351 352 351 352 352 352 353 354 354 355 355 354 355 355 356 355 356 355 353 350 351 352 352 351 350 350 349 349 349 348 348 348 348 348 347 346 346 346 346 346 346 346 346 346 346 346 347 347 346 347 346 347 347 348 350 350 348 347 347 346 346 346 346 345 345 345 346 346 347 346 347 347 347 347 347 347 348 348 348 347 347 348 348
352 352 352 353 353 353 353 354 354 354 355 355 355 355 356 355 355 355 354 353 350 350 351 351 350 349 349 349 349 349 348 348 348 347 347 347 347 347 346 346 346 347 347 347 347 346 346 346 347 348 347 348 347 347 347 347 348 346 345 346 347 346 345 345 345 345 345 346 346 346 347 346 346 347 347 347 347 348 348 348 348 347 346 347 347
353 353 353 354 354 354 354 355 354 355 355 355 356 356 356 356 355 355 353 351 351 351 351 349 348 348 349 348 348 348 348 349 349 348 348 348 347 348 347 346 346 347 348 348 347 347 347 347 348 348 348 349 349 349 349 348 348 347 346 347 346 344 345 345 345 345 346 346 346 346 346 346 346 346 346 347 346 347 347 346 346 346 346 346 346
353 353 354 354 355 355 355 355 355 355 355 356 357 357 357 356 354 353 352 351 351 351 350 349 348 348 349 349 349 350 349 349 349 349 349 349 349 349 350 349 348 348 348 348 348 348 349 349 350 349 349 350 350 350 350 350 350 350 349 348 346 346 347 346 345 345 346 347 347 347 346 347 347 346 346 347 346 346 346 346 346 346 346 346 346
353 353 354 354 355 355 356 356 355 353 352 355 354 354 355 354 353 353 353 351 350 350 349 348 347 346 348 349 349 350 350 349 349 350 350 350 350 350 350 350 349 349 348 348 349 350 350 350 350 350 349 349 350 349 348 349 350 350 349 349 348 348 349 348 346 345 346 347 347 347 347 346 346 346 346 345 345 345 346 346 346 346 346 346 346
354 354 355 355 355 356 356 355 352 349 351 353 352 351 352 352 352 353 353 351 349 349 349 348 347 346 347 348 349 350 350 350 350 350 350 350 350 350 350 350 349 348 348 348 349 349 350 350 349 348 349 349 349 349 349 349 349 349 349 348 348 348 349 348 348 346 347 347 347 346 346 346 346 346 346 344 344 345 346 346 346 346 345 345 345
355 355 355 356 356 356 356 353 348 347 350 350 349 350 350 350 350 351 351 349 348 349 350 349 348 349 349 348 349 350 350 349 349 350 350 350 349 349 349 349 349 348 348 348 347 347 348 348 347 348 349 350 349 348 349 349 349 348 348 348 348 348 348 348 347 347 346 345 345 344 345 345 345 345 345 344 344 345 345 345 345 344 344 345 344
355 355 356 356 356 356 356 351 345 346 349 348 347 348 348 349 350 349 350 350 350 351 350 349 349 350 350 350 350 350 349 347 348 350 350 348 348 348 349 348 348 347 347 346 347 347 348 348 348 349 349 349 348 347 347 347 348 348 348 348 347 347 346 346 346 346 345 345 344 344 344 344 344 343 344 343 343 343 343 342 342 341 341 341 340
356 356 356 355 355 356 356 351 347 348 350 349 347 347 348 349 349 350 351 352 352 352 351 350 350 351 351 351 350 350 349 348 348 350 349 348 348 349 349 349 348 348 347 347 348 348 348 349 348 349 348 348 349 346 344 344 346 347 347 347 347 346 346 344 342 342 342 342 342 343 343 342 342 342 342 342 341 340 339 338 338 337 337 337 337
355 355 354 354 355 355 355 352 350 350 350 349 348 349 350 350 351 352 352 352 352 352 351 351 351 351 351 351 351 350 349 349 349 350 350 350 350 350 350 348 347 346 345 346 347 347 347 347 348 348 348 348 349 347 345 345 346 346 346 346 345 345 344 342 340 339 338 337 337 337 336 335 335 335 335 336 336 337 337 337 337 337 337 337 336
353 353 352 353 354 354 353 352 351 350 350 351 351 352 352 352 353 353 353 352 352 351 351 351 351 352 351 351 351 350 350 350 351 351 350 350 349 348 347 344 342 342 343 345 347 345 344 345 346 346 346 346 347 346 346 346 346 345 345 344 343 342 342 340 339 337 335 333 332 331 331 331 333 333 334 335 336 337 338 338 338 338 338 338 338
351 352 352 353 353 352 351 351 351 351 352 353 353 353 353 353 353 353 353 352 351 351 351 351 351 352 352 351 351 350 350 351 350 348 347 345 343 342 341 340 340 341 342 343 344 344 343 343 343 342 342 342 343 343 344 344 344 343 343 341 340 340 339 338 336 334 332 330 331 332 333 335 336 336 336 336 336 335 335 336 336 337 338 338 337
352 353 352 352 352 351 351 352 352 353 353 353 353 353 352 353 353 353 353 353 352 352 352 351 351 352 352 351 351 350 351 349 347 345 343 340 338 338 338 339 340 339 339 338 339 339 339 339 339 339 339 339 339 338 338 339 339 338 338 337 336 335 334 333 332 331 331 332 334 335 336 337 337 336 335 334 333 332 331 333 334 336 337 336 334
352 352 351 351 351 352 352 352 352 352 352 352 351 352 352 353 354 353 353 353 353 353 352 351 352 352 350 350 350 350 350 348 344 343 340 337 337 337 337 337 336 336 336 335 335 335 334 334 334 334 335 336 336 335 334 334 335 334 334 333 332 331 330 330 330 330 332 334 335 336 336 336 335 334 333 331 330 329 329 331 333 335 334 333 332
352 351 352 351 351 352 353 353 353 352 352 352 353 353 353 354 354 353 353 352 352 353 352 351 351 351 350 350 349 349 349 346 344 341 338 335 336 336 335 335 335 335 336 336 335 334 333 332 331 331 332 333 334 334 334 335 334 334 334 333 331 329 328 328 329 330 331 332 332 333 334 333 332 331 329 328 328 328 329 331 331 331 331 330 331
352 353 352 352 353 354 354 354 354 353 354 354 354 354 353 353 354 353 353 352 352 351 350 349 349 349 349 349 348 348 348 346 343 340 336 334 335 336 336 337 337 337 336 335 334 333 331 331 330 330 330 329 330 332 334 335 335 334 334 333 330 328 328 328 330 330 330 330 330 330 330 330 329 329 328 328 328 328 329 329 329 329 329 329 329
353 353 353 354 355 355 354 354 354 354 354 354 354 354 354 353 353 353 352 352 351 350 349 349 348 347 347 348 347 348 349 348 344 339 336 335 336 337 337 338 338 338 336 335 333 332 331 331 331 331 331 330 328 329 329 331 332 332 332 331 330 328 328 329 330 330 329 329 329 329 329 329 329 329 329 329 329 329 329 329 329 329 329 329 329
354 354 354 355 355 354 354 354 354 354 354 354 353 353 352 352 351 351 351 350 350 349 348 347 346 346 346 346 346 346 348 348 344 339 337 337 337 337 338 339 339 338 336 334 332 331 331 332 333 333 333 333 332 330 329 329 329 329 329 330 329 328 328 329 330 330 329 329 329 329 330 329 329 330 330 329 330 330 330 330 330 330 329 329 329
354 354 354 353 353 354 354 354 354 353 353 352 352 351 350 350 350 349 349 349 348 348 347 346 346 346 346 346 346 345 347 347 344 339 337 337 337 339 340 340 338 335 334 333 332 331 332 333 333 333 334 334 334 334 333 332 330 328 329 331 330 329 329 330 330 330 330 330 330 330 331 331 330 331 330 330 330 329 330 330 330 330 330 330 330
353 352 352 352 353 353 354 354 353 353 352 352 351 350 350 349 349 349 348 347 347 347 347 347 347 347 347 347 346 345 346 346 343 339 337 338 339 341 340 337 334 334 334 333 331 332 333 333 332 332 333 333 334 335 335 335 334 332 331 332 331 331 330 330 330 331 331 331 331 331 331 332 332 331 330 330 329 329 329 329 329 329 329 329 330
352 352 352 353 353 353 353 353 353 352 352 351 350 351 350 349 348 347 347 347 347 347 347 346 347 347 346 346 345 343 343 344 343 340 340 341 341 340 337 335 335 335 334 333 331 332 333 333 332 332 332 332 333 334 334 335 336 335 334 334 334 333 333 332 332 331 331 331 331 332 332 333 333 332 331 330 330 329 329 329 329 329 329 329 329
352 352 353 353 353 353 353 353 352 352 351 350 349 349 349 348 347 346 346 345 345 345 345 345 345 346 345 344 343 341 341 342 343 342 341 340 338 337 336 335 335 334 334 333 332 332 333 333 333 332 332 332 332 332 332 332 333 333 333 333 333 334 334 333 332 332 332 332 332 332 333 333 333 331 331 331 331 331 330 329 329 329 329 329 329
352 352 353 352 353 353 353 352 351 351 350 349 348 347 346 345 344 343 342 341 341 341 342 343 344 345 344 343 341 340 340 340 339 338 338 337 335 335 335 334 334 334 334 333 333 333 333 333 332 332 332 332 332 331 331 331 331 330 330 330 330 331 330 330 329 330 330 330 330 331 331 331 331 331 331 331 330 331 330 330 329 329 329 329 328
353 353 353 352 352 352 352 352 351 350 349 347 346 344 341 339 339 338 338 337 337 338 339 339 340 341 340 339 338 337 337 336 335 335 335 334 334 334 333 333 333 333 333 333 333 333 332 331 331 330 330 330 330 329 329 328 328 328 327 327 327 327 327 327 327 326 327 327 327 327 328 328 328 328 328 328 328 328 328 328 328 328 328 328 328
352 352 353 352 351 352 351 351 351 350 348 346 344 342 338 336 335 336 336 336 336 336 335 336 336 336 336 336 335 335 335 335 334 334 334 333 333 333 333 333 333 333 333 333 333 331 330 329 328 328 328 328 328 327 325 325 325 324 324 323 323 322 322 323 323 323 324 324 324 324 325 324 324 324 325 325 325 326 326 326 326 326 326 327 327
350 350 351 351 351 351 350 350 350 349 347 344 342 340 337 335 335 335 335 335 335 335 335 335 335 335 335 335 335 335 334 334 334 333 333 333 333 333 333 333 333 332 332 332 330 329 328 327 326 325 325 324 324 322 321 320 321 321 320 320 319 318 317 318 318 319 319 319 319 320 320 320 320 322 322 322 323 324 324 324 324 324 324 325 325
346 347 348 349 349 348 348 347 346 346 345 342 340 338 337 336 335 334 334 335 335 335 336 336 335 336 335 335 335 334 334 334 334 333 333 332 332 331 331 330 330 330 330 329 327 326 325 324 323 322 321 320 318 318 316 315 315 316 315 314 313 312 312 313 314 314 314 314 314 315 315 316 317 319 319 320 321 322 322 322 323 323 323 323 324
345 345 345 345 345 344 344 344 344 343 343 340 338 337 336 337 336 335 334 335 335 335 335 335 335 335 335 334 334 334 333 333 333 331 330 330 329 328 327 327 326 326 326 325 324 323 323 322 321 319 318 316 315 315 314 312 310 310 310 309 308 307 307 308 309 309 309 310 311 311 311 312 314 315 316 317 319 321 321 321 321 321 322 322 322
344 345 344 343 343 342 342 342 342 342 340 339 337 336 336 337 336 336 336 335 334 333 334 334 334 333 333 333 332 330 330 330 329 327 326 324 324 324 324 322 321 321 321 321 321 321 321 320 318 316 315 313 312 311 309 307 306 306 306 306 305 304 304 304 304 304 304 305 306 307 308 310 311 312 313 315 317 319 319 319 319 319 319 320 321
345 345 344 343 343 343 343 343 342 342 340 339 338 337 337 337 336 335 335 335 333 332 333 332 332 331 330 329 327 325 324 323 322 321 320 320 320 321 320 318 317 317 316 316 316 316 315 314 313 311 310 308 307 305 304 304 303 303 303 304 303 303 302 302 302 302 302 302 302 302 304 307 309 311 311 313 315 316 317 317 317 317 317 317 318
344 344 344 343 343 343 343 343 343 343 343 342 340 338 337 336 335 334 334 334 333 331 331 330 329 328 326 324 323 321 320 319 319 318 317 316 315 315 315 314 314 314 313 312 312 311 309 308 307 307 306 305 304 303 303 303 303 303 303 303 303 303 303 302 302 302 302 301 300 299 300 302 306 309 310 310 312 313 314 314 315 315 315 315 315
341 341 342 342 342 342 341 342 342 342 342 341 339 338 336 335 333 333 333 333 332 331 330 329 328 326 324 321 320 320 319 318 317 315 314 313 312 311 311 312 312 313 312 312 311 310 308 306 305 305 304 304 304 304 304 304 304 304 304 304 303 303 303 303 302 302 302 301 300 299 298 299 303 307 308 308 309 310 310 311 312 313 314 314 314
339 339 340 340 341 341 341 341 341 341 340 339 337 335 334 333 332 332 331 331 331 330 329 328 327 326 324 321 320 319 318 317 315 314 313 312 311 311 311 311 311 311 312 312 312 311 309 307 305 305 305 305 305 305 305 305 305 305 304 304 303 303 302 302 302 302 301 300 300 298 298 299 301 304 306 306 307 308 308 308 309 311 312 313 313
338 339 339 339 340 339 340 340 340 339 338 336 333 332 330 330 330 329 328 328 328 327 327 327 326 325 323 321 319 319 318 316 315 314 313 312 311 311 311 311 311 311 311 311 311 310 310 308 307 306 306 306 306 306 306 306 306 305 305 304 303 303 302 302 302 301 300 300 299 298 298 300 302 303 304 305 305 306 307 307 308 309 310 312 312
338 338 338 338 338 338 338 338 337 336 334 332 330 329 328 328 327 326 326 325 325 324 324 324 324 323 322 320 319 319 318 317 315 314 313 312 312 311 311 312 312 311 311 310 310 310 309 309 308 308 308 308 307 307 306 306 305 305 304 303 303 302 302 302 301 300 299 299 298 298 299 301 302 302 302 303 303 304 305 306 306 307 309 310 311
337 336 337 337 337 337 337 335 333 332 331 329 328 327 327 326 325 325 325 324 323 323 323 323 323 322 321 321 320 319 318 317 316 315 314 313 313 313 313 313 313 313 312 311 311 311 310 310 309 308 308 307 307 307 306 306 305 304 303 303 302 302 301 301 300 299 299 298 298 298 298 300 301 301 301 301 301 301 302 302 303 305 306 308 308
335 335 335 336 336 336 335 333 331 330 328 327 326 326 325 325 324 323 322 322 321 320 320 319 318 317 317 319 320 320 319 317 317 316 315 315 314 314 313 313 313 314 314 313 312 311 311 311 310 309 308 307 307 306 306 305 304 303 303 302 302 301 301 300 299 299 298 298 298 298 298 298 299 299 299 299 299 299 299 300 301 302 304 305 305
334 333 333 333 333 333 332 331 331 330 328 327 326 325 323 323 322 321 320 319 318 317 316 315 314 314 313 316 318 319 319 319 319 318 317 316 314 312 311 311 311 312 312 313 313 312 312 312 311 310 309 308 307 306 305 304 304 303 302 302 301 301 300 299 299 299 298 298 298 298 298 297 297 297 298 298 299 299 299 299 299 300 302 303 304
331 330 329 328 328 328 328 328 328 327 327 326 325 323 322 321 321 320 319 318 316 315 314 313 313 313 313 314 316 317 318 319 318 316 314 312 310 309 308 309 309 309 310 311 312 313 313 312 312 311 310 308 307 305 305 304 303 303 302 302 301 300 299 299 299 299 298 298 298 298 298 298 298 298 298 299 299 298 298 298 299 300 301 302 303
328 327 325 324 323 322 322 322 323 323 323 323 322 322 321 321 320 319 318 316 315 314 314 313 313 312 313 314 314 314 314 314 313 312 310 309 308 308 308 308 308 308 308 308 309 310 311 311 311 311 310 308 306 305 304 304 303 303 302 302 301 300 299 299 299 299 298 298 298 298 298 298 298 298 298 299 298 298 298 298 299 300 301 301 302
327 325 324 323 321 321 320 320 320 320 320 320 320 320 320 320 319 318 316 315 314 313 313 312 312 312 312 312 312 312 311 311 310 309 309 308 308 308 308 308 308 308 307 307 307 307 308 308 309 309 310 309 307 305 304 304 304 303 303 302 300 299 299 300 300 299 299 299 298 298 298 298 298 298 298 298 298 298 298 298 299 300 301 301 301
326 325 324 322 321 320 319 318 318 317 317 316 316 316 316 316 316 315 314 313 313 313 312 312 311 311 311 311 310 310 309 309 309 308 308 308 308 308 308 307 307 307 307 307 307 306 306 306 307 308 309 309 307 305 304 304 304 303 302 301 300 299 300 300 300 300 299 299 299 299 299 298 298 298 298 298 299 298 298 298 299 300 300 300 300
324 323 322 321 320 318 317 316 315 315 314 314 313 313 313 313 313 312 312 312 311 311 311 311 310 310 310 310 309 309 309 308 308 308 308 308 308 307 307 307 307 307 306 306 306 305 305 305 306 306 307 308 307 306 305 304 304 303 302 301 300 300 300 300 300 300 300 299 299 299 299 299 299 298 298 298 298 298 298 298 299 299 299 299 299
320 320 320 319 317 316 315 315 314 313 313 312 312 311 311 311 311 311 311 310 310 310 310 310 310 310 309 309 309 309 308 308 307 307 307 306 306 306 306 306 306 306 305 305 304 304 304 304 304 305 306 307 306 306 305 304 304 304 302 301 301 301 301 300 300 299 299 299 299 299 299 299 299 298 298 298 298 298 298 299 299 299 299 298 298
318 317 316 316 315 314 314 313 312 312 312 311 311 311 310 310 310 310 310 309 309 309 308 308 308 308 308 308 308 307 307 306 306 306 306 305 305 305 305 305 305 305 305 304 304 304 304 304 304 304 304 305 305 305 304 304 304 304 303 302 301 301 301 300 300 299 299 299 299 299 299 298 298 298 298 298 298 298 298 299 299 298 298 298 298
Wind_Speed
34 34 34 33 31 28 26 27 28 28 26 25 24 24 24 25 26 26 25 24 23 20 19 20 22 23 22 22 22 23 24 25 25 24 25 25 25 24 24 24 25 25 24 24 24 23 23 22 22 21 20 20 21 21 21 20 19 19 17 16 16 13 13 14 11 10 15 17 17 17 15 15 16 16 17 17 17 16 18 19 21 21 22 23 24
35 35 35 33 31 30 27 26 25 25 24 22 21 22 22 24 25 25 24 22 21 20 20 21 22 23 23 23 23 24 25 26 26 25 25 24 22 22 24 26 27 28 27 26 27 26 25 24 24 23 22 22 22 22 22 21 20 20 18 17 16 14 13 15 14 11 13 15 15 14 14 15 16 17 17 18 17 16 17 18 19 20 21 22 23
35 35 34 33 31 29 28 26 23 22 21 21 21 21 22 24 24 23 22 21 20 21 21 21 22 22 22 22 22 22 21 19 17 17 16 15 16 19 22 24 25 26 28 28 27 26 26 25 25 24 24 23 23 22 22 21 19 17 15 14 13 13 12 14 14 12 13 14 14 14 15 16 16 17 17 17 17 18 19 20 21 21 21 22 22
34 33 33 32 29 27 27 26 24 22 21 21 21 22 23 24 23 22 21 20 20 21 20 19 18 16 16 18 18 17 15 14 14 14 14 14 16 17 20 22 24 26 28 27 25 26 26 26 26 26 25 24 23 22 21 19 16 14 13 13 14 15 15 15 15 15 14 15 16 17 17 17 18 18 18 19 20 21 22 23 23 22 21 20 20
33 31 31 30 27 25 26 25 25 25 24 22 21 22 23 24 22 21 20 19 19 18 15 12 12 15 18 19 18 17 18 17 17 18 17 17 17 18 20 21 22 23 24 23 22 23 25 27 29 28 27 25 23 23 21 18 16 15 15 16 17 18 18 17 16 16 17 19 21 21 20 20 21 21 20 21 22 22 23 22 21 20 20 19 19
32 29 29 28 26 26 25 26 27 26 22 19 21 23 24 23 21 21 19 18 15 11 8 9 12 16 17 15 14 16 18 18 17 18 18 18 18 19 19 19 19 21 20 18 18 19 20 24 26 27 26 25 25 24 20 17 17 16 16 17 17 18 19 19 19 18 18 21 23 24 23 22 22 22 21 20 20 21 21 22 21 20 20 20 20
29 27 26 25 26 26 26 26 25 20 16 18 22 24 23 20 20 20 17 12 7 6 10 16 18 17 15 13 13 15 16 16 16 17 17 17 17 17 17 17 18 19 19 17 17 17 18 20 21 22 22 22 24 24 20 17 16 15 14 15 16 17 18 18 18 18 19 21 23 24 25 24 22 22 22 20 19 20 20 20 20 20 19 19 20
24 23 23 24 25 25 24 24 20 14 14 19 23 23 22 20 20 19 12 5 4 7 13 18 19 19 19 17 14 13 13 13 14 15 16 16 16 16 17 19 19 20 20 19 19 19 19 18 17 18 18 16 17 20 19 16 13 12 13 14 15 17 17 17 18 19 20 21 22 23 23 22 21 21 21 20 19 18 16 14 16 18 19 20 20
24 23 23 23 23 22 21 20 14 11 13 19 21 22 22 19 18 17 11 7 9 13 14 13 14 16 20 19 15 12 12 12 12 14 16 16 14 14 16 17 17 18 19 20 20 19 19 18 17 17 17 14 11 13 15 14 12 13 16 15 15 15 16 18 19 19 17 17 19 20 17 16 17 18 17 17 17 16 14 13 14 16 18 19 20
26 26 25 24 22 20 19 16 11 10 11 15 18 21 20 16 14 14 11 8 9 11 11 10 11 13 16 17 16 13 11 10 10 11 13 12 11 11 12 13 15 17 18 19 19 18 17 17 16 15 14 11 8 9 11 11 11 14 15 14 12 13 15 18 18 15 14 15 16 15 13 12 15 16 14 15 15 14 13 12 13 14 14 15 17
26 25 25 23 21 18 17 14 9 13 11 13 18 19 17 13 12 11 8 5 5 8 9 9 9 11 12 13 14 13 9 8 8 9 9 7 7 9 10 11 13 14 15 16 16 15 14 14 13 12 11 10 9 10 10 9 9 12 14 14 13 13 16 19 17 14 15 16 14 13 12 14 16 16 14 14 15 14 13 11 12 12 11 10 12
23 23 21 19 17 15 15 11 11 15 9 14 16 15 13 11 10 9 6 3 4 7 7 6 5 6 9 10 11 9 7 6 7 8 7 5 6 8 8 8 10 11 11 12 12 14 14 12 11 11 11 11 11 10 7 6 9 13 15 14 12 13 16 19 17 14 14 14 12 12 14 15 16 15 14 14 14 13 13 12 12 12 11 12 12
20 19 17 16 15 13 11 8 13 14 11 13 13 10 9 9 9 9 7 3 3 3 3 3 3 5 6 7 5 4 4 5 6 5 3 3 6 7 7 8 8 9 9 9 10 12 13 11 10 11 11 13 11 9 8 10 12 14 15 14 14 14 15 15 15 14 14 14 14 15 17 17 16 16 16 15 14 13 12 11 11 11 12 13 14
16 16 15 14 13 10 8 7 14 16 11 11 10 8 7 10 11 9 5 3 4 4 3 3 3 4 3 2 1 2 3 4 4 2 1 3 5 6 8 9 9 8 8 8 9 10 11 11 10 9 11 13 11 8 9 11 12 13 14 12 12 11 10 9 10 10 11 12 13 14 15 15 15 15 14 12 11 11 11 12 14 15 16 17 18
14 13 14 13 10 8 7 7 15 17 11 8 9 10 11 12 11 7 5 5 5 5 4 4 4 3 2 0 1 1 1 2 2 2 0 3 5 6 6 7 7 7 7 7 7 8 9 9 9 8 9 11 10 7 8 8 7 10 11 9 8 8 7 6 6 7 7 8 10 11 12 12 14 14 14 13 13 14 16 18 19 21 21 20 19
13 12 12 11 8 7 8 10 14 16 13 11 12 12 11 10 10 8 7 6 6 5 4 4 3 3 2 2 1 2 3 4 5 3 1 3 3 4 4 5 5 6 6 6 6 7 8 8 8 6 6 8 7 5 4 3 3 6 7 7 7 7 7 7 7 9 10 10 11 12 13 14 14 14 14 14 13 14 14 15 16 16 16 14 12
12 11 10 9 8 8 10 11 13 15 16 15 13 12 10 10 10 10 8 7 6 5 4 3 4 4 4 4 4 4 5 5 4 2 1 1 1 2 2 4 4 4 5 5 6 6 6 6 5 4 4 5 5 4 2 1 2 3 5 6 7 7 8 9 10 12 13 13 12 12 11 10 9 8 7 7 7 8 9 9 11 11 10 10 8
10 10 10 10 10 10 10 11 13 16 16 15 14 13 10 9 9 8 7 6 5 4 4 5 5 5 6 6 5 5 5 5 4 3 2 1 3 3 3 3 3 4 5 5 4 4 4 5 5 4 4 4 3 2 1 1 3 4 6 9 10 10 11 13 14 13 11 10 8 7 6 5 4 3 4 5 7 8 8 9 10 9 9 9 7
8 10 10 11 10 10 10 11 13 14 14 13 13 12 10 8 6 5 3 3 4 4 4 5 6 6 6 6 5 4 5 5 5 3 2 3 4 3 3 3 4 5 6 5 5 5 5 6 6 6 5 4 3 3 3 3 4 6 7 10 13 14 14 14 14 11 7 4 4 4 4 3 2 3 5 7 9 9 9 9 8 7 8 8 7
7 9 10 11 10 10 10 10 10 11 11 12 11 10 9 7 5 5 4 4 5 5 3 3 4 4 5 5 5 5 5 5 4 2 3 4 4 4 4 5 6 6 7 7 7 8 8 8 8 8 6 5 4 5 5 4 5 6 8 10 13 15 14 12 9 7 4 3 3 4 3 3 4 5 7 8 8 8 8 7 6 6 6 7 7
8 9 10 11 11 10 10 9 10 11 11 11 10 9 7 7 7 7 6 6 5 4 3 3 2 3 4 5 5 5 5 4 3 2 3 4 4 5 6 6 6 6 7 8 9 10 11 11 10 10 8 6 6 6 6 6 6 7 9 10 12 13 12 8 5 3 3 4 4 4 3 3 5 6 6 7 7 7 6 6 6 6 7 8 8
9 10 10 11 11 10 10 11 11 10 10 9 9 8 8 8 7 7 7 7 6 5 5 5 4 4 5 5 5 5 4 4 2 2 3 4 5 5 5 6 6 7 8 9 11 12 13 13 13 12 11 10 9 8 8 8 9 9 9 10 10 9 7 4 2 1 2 3 3 4 4 5 6 6 5 5 6 6 6 6 7 7 9 10 10
11 11 12 12 11 11 11 10 10 9 9 8 8 8 9 8 8 7 7 8 7 6 6 6 6 6 5 5 5 4 4 4 2 2 2 3 4 5 6 7 9 10 11 12 13 14 15 15 15 14 12 11 10 9 9 9 10 9 8 8 7 6 3 2 2 1 2 2 3 3 4 5 7 7 6 7 8 9 9 9 9 10 11 12 13
13 13 13 12 11 10 9 9 9 8 8 7 8 8 9 8 8 8 7 6 6 6 5 4 4 3 2 2 2 2 2 2 1 1 2 3 4 6 7 9 10 11 12 13 14 14 14 15 15 14 13 11 10 9 8 7 7 7 5 5 4 2 2 3 3 2 3 3 4 5 5 6 7 8 8 9 10 12 13 12 12 12 13 14 14
15 13 13 12 10 10 9 9 8 8 7 8 8 9 8 7 6 6 5 4 4 3 3 2 1 1 2 2 2 1 1 2 2 1 2 3 4 7 8 10 11 11 11 12 12 12 12 13 12 11 11 10 9 8 6 5 5 4 3 3 2 1 2 3 4 5 6 6 7 8 9 9 9 10 11 12 12 13 14 14 13 13 13 14 15
14 12 12 12 11 10 10 9 9 8 8 8 8 8 7 5 5 4 3 3 3 2 2 2 3 4 5 4 3 1 1 3 3 2 2 3 6 8 10 10 10 10 10 11 10 10 10 10 9 10 11 11 11 9 7 5 4 3 3 3 3 3 4 5 7 8 9 10 11 13 13 13 13 12 12 13 14 15 16 15 15 14 14 14 14
12 12 12 12 11 10 9 8 8 9 8 7 7 6 5 4 3 2 1 0 1 1 2 3 4 4 5 3 1 1 1 2 3 3 4 6 8 10 10 10 10 10 10 11 10 9 9 9 8 10 11 13 14 14 13 11 10 8 6 5 5 5 6 7 9 10 10 12 14 16 16 15 14 12 12 13 14 15 17 17 17 16 16 15 14
12 12 11 10 9 8 8 8 8 8 8 7 6 5 4 3 2 1 1 1 1 1 0 1 2 2 2 2 2 3 4 4 4 4 6 7 8 9 9 10 10 10 11 10 9 8 8 7 7 8 10 12 14 15 16 17 17 16 15 13 11 9 8 8 8 9 9 10 12 13 14 14 13 13 13 14 15 15 17 18 17 17 17 15 12
11 10 8 8 7 7 7 7 6 7 7 6 6 5 4 3 2 2 3 4 4 4 4 5 6 6 5 6 6 6 7 5 5 5 6 7 7 8 8 8 9 9 9 8 7 7 7 8 9 11 12 13 14 15 16 16 16 17 17 17 15 14 14 13 13 12 11 10 10 11 12 13 13 14 14 15 16 16 16 17 16 16 16 15 13
7 6 5 4 5 4 5 5 5 5 5 6 6 6 6 6 5 5 6 7 7 6 7 7 8 8 8 9 9 8 8 6 6 6 6 7 7 7 8 8 8 8 7 6 7 9 10 11 13 13 13 14 15 15 15 16 16 16 17 18 19 18 17 16 16 16 15 14 14 14 14 14 14 14 13 13 15 15 15 14 14 13 12 12 13
5 2 2 2 3 4 4 5 6 6 6 6 7 8 10 11 10 9 10 9 8 9 9 9 10 9 9 9 9 9 8 8 8 8 8 8 8 8 9 9 9 8 8 8 10 12 12 13 13 13 12 13 14 14 14 16 17 18 19 20 21 21 20 19 17 17 16 16 16 15 15 15 15 15 14 13 14 15 15 14 13 13 12 9 10
4 3 5 6 6 7 8 8 9 9 9 9 10 11 13 14 14 13 12 10 10 10 10 10 10 10 10 10 10 10 10 10 10 10 9 9 10 10 10 11 11 10 9 11 13 13 12 12 12 12 12 13 13 14 15 17 18 18 19 20 21 21 20 19 17 16 16 16 16 16 16 16 16 15 14 13 13 13 12 12 12 12 11 9 9
4 4 8 9 9 10 10 10 10 10 10 11 12 13 14 15 16 16 14 12 11 11 11 11 11 11 11 11 11 11 12 12 12 12 11 11 12 12 12 13 13 12 13 14 15 13 12 12 11 11 11 12 14 15 17 18 18 18 19 19 19 19 18 17 16 17 17 17 17 16 16 16 15 14 13 12 11 10 11 11 10 10 10 10 10
5 5 9 10 9 9 9 10 10 10 11 12 13 13 12 14 15 16 15 13 12 12 13 13 12 12 12 12 13 14 15 14 14 14 13 13 13 13 13 13 14 14 15 16 15 13 12 12 12 11 12 12 14 15 16 17 18 18 18 18 18 18 18 18 18 19 19 18 18 18 18 18 15 13 12 12 11 11 11 12 11 11 11 11 12
9 8 9 9 8 8 8 9 10 11 12 12 12 11 11 11 11 12 12 12 12 13 14 13 13 13 14 14 16 16 16 15 14 14 14 13 12 11 12 14 15 15 15 14 13 12 12 11 11 12 13 14 14 15 16 17 18 19 19 19 19 19 19 20 20 19 19 19 19 19 19 19 17 14 12 11 12 12 13 13 13 13 12 12 13
15 13 12 11 10 10 9 9 9 11 11 11 10 10 10 10 10 11 12 12 13 14 14 14 14 15 15 16 16 17 16 16 15 15 15 15 13 13 14 15 15 15 14 14 13 12 13 13 13 14 14 15 16 16 17 18 19 20 20 19 19 20 21 21 21 20 20 20 19 18 18 18 18 16 14 12 11 12 13 13 13 12 12 12 12
17 15 13 11 10 11 11 11 11 10 10 10 11 10 11 11 12 13 13 12 12 13 15 16 16 16 16 16 16 15 15 15 15 16 16 17 16 17 17 17 16 15 15 15 14 14 15 15 15 15 15 16 16 17 18 18 19 19 19 19 19 20 21 21 21 21 21 20 19 19 18 17 17 16 15 13 11 10 11 12 12 12 13 12 12
15 12 11 11 11 12 13 13 12 12 12 13 13 13 14 15 13 11 11 11 11 13 14 15 16 15 15 14 13 12 13 14 15 17 19 19 20 20 19 18 17 16 15 14 14 14 14 14 14 15 15 15 16 17 17 17 18 18 18 19 19 20 20 21 21 22 22 22 21 20 18 18 16 15 15 13 11 10 10 11 12 12 13 13 13
16 14 13 13 13 13 14 13 13 14 14 15 16 17 19 18 16 15 14 13 14 15 14 14 13 12 11 11 10 10 11 13 15 17 19 19 19 19 18 16 16 15 14 13 12 12 13 13 13 14 14 14 15 16 16 16 16 17 18 18 19 20 22 23 24 24 24 24 23 21 19 18 17 16 15 14 11 9 10 12 12 12 12 12 13
19 17 16 15 14 14 14 14 15 15 16 18 18 19 20 19 18 19 18 17 17 15 13 12 11 10 9 9 8 8 9 12 14 15 16 16 15 16 15 14 13 13 12 11 11 10 10 10 11 11 12 12 13 13 14 14 14 15 16 17 18 19 21 22 24 24 24 24 23 22 20 19 18 17 17 15 12 10 10 11 12 12 12 12 13
19 19 17 16 15 15 15 15 16 17 18 19 19 19 19 18 18 18 18 17 16 13 11 11 10 9 7 6 5 5 7 9 10 11 12 12 11 11 11 11 9 9 9 8 8 8 8 7 7 7 8 8 9 9 10 11 11 12 13 14 16 18 20 21 22 23 23 23 23 22 21 20 19 18 18 16 14 13 12 11 12 13 13 12 13
18 18 18 17 16 16 17 17 18 18 19 19 18 18 18 17 17 17 17 15 14 12 10 10 8 6 5 3 3 3 5 7 7 8 9 8 8 7 7 6 5 5 4 4 4 4 4 3 3 3 3 4 5 6 7 8 9 10 11 13 15 17 19 20 20 21 22 22 22 22 21 20 19 18 18 18 17 17 17 16 16 16 15 14 14
18 18 19 18 18 19 20 20 19 19 18 18 18 17 16 16 16 16 16 14 13 12 11 10 8 7 6 4 3 2 4 5 5 5 5 4 4 4 5 5 5 5 5 4 4 5 5 5 4 3 3 3 4 5 5 6 7 9 11 13 15 17 18 19 19 20 21 21 22 21 21 20 19 19 19 19 18 19 20 20 19 18 16 16 17
20 21 22 22 22 22 21 20 19 19 18 17 17 16 16 16 15 15 14 14 13 12 11 10 9 8 8 6 4 2 2 2 3 2 2 3 4 5 6 6 7 7 8 8 7 7 8 9 8 7 7 6 6 5 5 5 6 8 10 13 15 16 17 17 18 18 19 20 20 20 20 19 19 19 19 18 18 19 19 19 19 18 17 16 17
22 24 25 25 25 24 23 21 20 19 18 18 17 16 15 14 13 13 13 13 12 11 10 8 7 6 6 6 5 4 3 2 2 2 3 4 5 7 8 8 8 8 9 9 8 8 9 11 11 11 10 9 8 6 5 5 6 8 10 13 15 15 15 16 16 17 17 18 19 19 19 19 19 19 17 17 17 18 18 19 18 17 15 15 15
23 24 25 25 25 24 23 22 20 19 18 17 16 14 13 12 12 12 12 11 10 9 7 6 6 5 5 6 6 5 4 3 2 2 3 4 5 6 7 7 7 7 8 9 8 8 9 11 13 13 12 11 10 8 7 6 7 9 11 14 15 14 14 15 16 16 17 17 18 18 19 19 19 19 19 18 19 19 18 18 17 15 14 14 14
22 23 24 24 24 23 22 21 19 18 17 16 14 13 13 12 11 11 10 9 8 7 6 6 5 5 5 5 5 4 3 2 2 3 4 5 6 6 6 7 7 7 9 9 9 10 11 12 13 14 14 14 13 11 9 8 9 10 11 12 12 11 12 13 14 15 16 16 17 18 19 20 21 21 21 22 21 21 20 19 16 15 15 16 16
21 23 23 23 23 22 21 20 19 18 17 16 15 14 13 11 10 9 7 6 6 5 5 5 5 4 3 2 1 1 2 4 5 6 7 8 8 8 9 9 9 10 11 12 12 12 13 13 14 15 16 17 16 14 12 11 10 10 10 10 9 9 10 11 13 13 14 16 17 18 19 21 22 22 23 23 22 22 22 19 16 15 16 16 16
21 22 23 22 22 21 20 19 19 18 17 16 15 13 11 9 8 6 6 5 5 5 4 3 2 2 1 2 2 3 5 6 7 8 9 10 11 11 11 11 12 12 13 14 15 15 15 15 16 16 17 18 18 17 15 14 13 12 11 10 8 9 10 12 12 13 14 15 16 17 19 21 22 23 23 22 21 21 21 18 15 15 16 16 16
21 22 22 22 21 20 19 18 17 16 15 14 13 12 10 9 7 6 6 5 5 4 4 3 3 2 2 3 3 5 7 8 9 11 12 12 12 12 12 12 12 13 14 15 15 15 15 16 16 16 17 18 19 18 18 17 16 14 13 11 10 10 11 12 13 13 14 15 17 19 20 21 22 23 22 22 21 21 18 15 14 15 16 16 16
21 21 21 20 20 19 17 16 16 14 13 12 11 10 9 8 7 6 5 4 4 4 4 4 3 3 4 4 6 7 9 10 11 12 13 13 12 12 12 12 13 14 14 15 15 15 15 15 15 16 16 17 18 19 20 20 19 18 16 14 13 13 13 14 15 14 15 16 18 20 21 22 22 22 21 21 20 18 14 13 13 15 15 16 16
Wind_Direction
222 225 228 229 231 230 230 231 232 233 234 235 236 238 240 243 246 249 252 253 255 257 259 257 253 250 249 249 248 247 248 249 250 253 256 259 261 264 265 264 264 265 266 266 265 264 263 264 265 266 268 268 267 265 261 260 261 261 263 265 263 262 255 245 244 262 275 282 286 289 293 292 290 291 291 291 289 287 284 279 278 279 279 280 280
221 224 227 229 231 230 231 233 234 234 234 235 238 241 244 248 250 252 254 254 254 256 258 260 258 254 251 250 250 250 250 250 250 252 255 260 265 269 269 265 264 264 264 267 268 267 265 265 266 268 269 268 267 266 265 265 265 264 263 263 265 267 264 259 257 259 272 283 288 290 292 289 288 291 293 294 293 292 289 284 284 283 282 282 281
221 223 225 228 230 229 230 231 233 234 235 237 241 245 249 253 255 256 258 257 255 256 259 262 262 259 257 256 257 259 256 258 266 268 270 279 286 291 294 292 288 283 278 275 274 274 270 265 264 267 270 270 268 265 265 267 267 265 261 260 266 274 274 269 267 267 276 284 285 285 286 284 284 287 288 287 286 287 287 285 284 282 280 280 280
219 221 223 226 227 227 229 230 230 232 235 238 241 245 250 254 255 256 257 257 256 258 260 261 263 265 267 265 267 272 273 273 281 281 277 279 276 277 287 295 301 304 301 296 294 295 290 280 273 270 269 270 270 268 266 266 264 259 256 259 265 269 266 263 261 263 272 280 280 280 281 280 281 281 280 279 279 280 280 279 279 278 280 282 281
217 220 222 224 224 226 228 228 229 231 233 235 237 243 248 250 252 254 255 257 258 258 258 261 268 271 272 269 266 269 273 269 264 263 267 273 272 268 268 271 276 285 293 297 298 298 295 289 285 283 276 270 268 269 267 262 258 257 260 265 266 266 265 265 265 265 267 269 273 277 278 276 278 279 277 276 277 277 274 273 276 280 283 285 288
214 217 220 222 224 226 228 229 230 230 228 229 234 242 247 248 251 255 256 259 263 268 276 280 276 272 274 275 270 270 274 271 265 265 270 274 276 272 268 267 267 271 279 284 285 286 284 282 285 290 289 283 277 275 271 264 263 263 264 268 270 272 272 269 268 268 266 265 268 273 275 275 276 277 278 277 276 277 277 277 280 284 288 292 296
213 216 218 220 225 227 228 230 231 226 223 230 239 245 250 251 254 258 261 269 288 308 296 283 275 272 274 274 271 271 272 269 268 270 272 272 273 271 271 274 276 277 276 270 265 268 271 273 279 283 286 290 289 286 279 271 270 275 282 285 280 275 273 270 269 269 265 263 264 267 271 275 275 275 278 278 276 278 282 287 290 293 298 301 302
214 216 217 222 226 228 230 232 229 218 222 238 246 250 254 255 258 263 268 284 294 279 275 275 275 276 274 269 266 269 270 271 271 270 271 273 275 277 281 284 284 283 278 269 264 264 264 267 271 270 269 275 283 287 284 281 287 297 297 289 276 268 270 273 273 268 261 259 260 263 267 272 273 275 278 280 280 281 286 291 295 298 303 305 306
213 216 220 223 226 229 232 232 220 203 223 245 253 257 260 260 260 264 268 269 271 271 274 277 279 280 278 272 266 263 264 268 271 270 273 277 278 283 290 290 286 283 280 275 272 269 266 266 268 266 266 268 280 296 296 291 290 285 275 269 268 269 270 268 264 261 258 257 259 263 267 270 273 276 279 282 285 288 292 295 295 299 304 306 308
211 215 219 222 226 228 230 231 213 186 208 243 258 264 267 265 261 266 268 263 274 286 289 282 268 264 272 275 272 269 267 269 272 275 279 283 287 295 301 296 285 280 279 277 275 273 272 275 277 276 277 283 298 304 291 277 271 271 266 260 258 257 256 256 256 256 257 257 259 265 269 271 275 278 279 284 292 297 300 300 298 302 307 306 308
210 214 219 222 225 224 227 229 190 152 177 238 257 261 264 264 264 271 272 261 279 291 290 283 264 251 255 264 270 276 282 285 286 286 287 294 303 306 305 298 289 284 282 281 282 285 288 289 291 293 298 303 297 282 276 272 267 267 267 262 255 249 253 260 263 261 258 259 261 265 266 270 277 280 281 289 299 303 304 303 301 301 304 301 302
210 215 219 220 223 225 227 214 153 141 189 249 253 248 252 258 257 259 259 257 284 290 290 295 278 241 232 240 254 268 283 291 290 287 287 300 304 299 296 292 288 287 286 283 288 293 292 293 306 316 316 308 291 278 283 287 272 267 267 266 261 255 256 262 267 266 261 262 265 268 271 275 278 283 290 296 301 303 303 302 301 298 296 293 289
210 214 215 217 222 226 227 195 149 155 208 236 231 233 243 238 233 242 251 235 213 240 266 278 257 219 213 225 239 247 248 255 262 268 280 296 290 284 283 282 282 288 292 293 295 295 292 299 319 331 320 303 291 282 278 271 267 268 269 268 266 262 261 264 267 266 266 268 269 272 277 280 281 286 293 298 302 303 304 306 309 309 303 298 294
206 213 216 220 221 220 226 186 149 155 188 212 213 217 212 207 215 231 243 210 172 174 191 206 202 194 200 222 228 197 197 214 232 251 280 278 272 271 275 280 284 295 305 311 314 315 317 324 333 334 315 304 303 299 283 270 263 265 270 275 277 277 278 282 283 282 282 281 280 283 287 289 288 291 296 299 302 308 313 313 311 308 302 297 297
205 212 215 218 217 210 214 177 148 154 175 190 191 193 193 197 203 204 197 178 164 170 187 192 182 174 171 158 106 123 146 153 117 81 65 252 258 266 278 290 301 315 328 338 339 337 341 343 340 332 314 306 308 304 289 279 267 264 272 292 309 310 313 321 321 313 303 293 287 287 287 285 285 287 292 296 297 300 302 300 297 294 292 292 296
196 203 206 206 201 195 197 180 157 159 168 168 170 178 182 181 177 172 171 170 173 185 193 188 175 160 136 115 99 82 81 88 92 96 190 261 276 282 295 320 336 342 348 355 356 357 358 351 343 339 329 318 317 315 300 295 293 281 285 306 328 328 325 330 328 318 308 299 289 283 281 283 287 290 292 294 296 299 299 297 298 298 293 293 297
184 190 193 188 186 190 192 183 165 161 162 160 161 166 169 169 168 171 174 177 190 204 194 168 158 143 127 116 98 80 78 82 88 110 173 278 316 310 326 347 356 4 7 9 13 15 7 355 351 355 354 341 340 1 29 22 333 309 300 304 313 312 306 307 312 311 308 302 296 294 299 306 310 312 314 314 318 325 322 318 321 318 301 291 290
173 179 181 181 186 187 182 173 164 159 156 153 155 160 166 172 174 174 174 177 185 186 162 151 148 132 120 112 97 82 84 94 104 111 99 16 329 330 353 15 28 31 26 19 12 3 352 350 357 8 16 11 357 357 18 269 263 274 284 289 294 296 296 300 306 310 310 307 306 316 329 340 350 358 357 349 340 337 330 322 324 321 307 301 306
170 175 178 181 183 178 169 165 161 154 149 149 153 157 161 166 171 165 154 154 155 144 131 132 130 119 114 116 116 108 104 105 106 96 49 356 347 5 36 52 50 37 27 25 19 10 4 360 359 360 1 360 339 313 297 280 275 285 292 294 294 295 296 298 304 312 320 321 320 329 335 340 348 349 344 339 332 328 324 321 319 313 312 321 329
174 176 180 183 179 171 164 158 148 141 141 144 147 151 153 154 153 146 137 129 124 116 103 95 96 102 110 121 129 130 124 119 112 80 19 9 29 59 65 62 53 37 26 24 22 18 13 9 5 2 356 345 325 311 308 308 304 305 307 304 302 302 302 301 303 311 328 337 328 328 326 318 321 328 333 338 339 337 335 333 327 316 317 326 327
177 178 180 178 173 163 151 136 128 127 131 134 133 135 140 144 147 145 138 131 124 119 115 111 113 118 118 120 125 126 128 134 126 75 28 37 68 81 73 65 55 38 23 15 11 6 0 356 352 347 340 329 314 303 299 298 298 301 305 306 305 306 305 302 295 298 323 332 336 343 343 333 333 340 347 358 5 4 357 347 337 328 324 322 320
169 170 168 163 157 146 131 122 122 123 125 126 124 125 131 138 143 138 134 135 133 129 130 133 140 142 133 132 136 134 139 148 135 83 61 74 86 77 59 49 36 21 11 5 1 357 352 348 343 337 329 318 304 292 282 279 281 289 297 302 307 309 305 295 270 266 309 326 341 356 1 353 351 358 4 6 4 359 350 340 332 326 321 318 316
163 164 160 151 140 128 121 120 120 120 122 124 126 128 129 130 131 131 135 140 138 138 140 140 142 145 141 140 141 138 142 148 132 79 65 74 68 43 27 20 12 5 0 358 357 354 350 346 342 337 331 320 309 296 285 279 279 284 291 295 302 308 292 226 199 235 286 309 322 340 353 354 352 353 351 342 335 332 328 323 319 315 312 312 312
159 157 154 146 133 123 119 119 117 116 120 127 132 132 129 128 128 127 126 127 127 130 132 131 137 140 129 123 121 119 135 150 139 61 41 34 25 12 2 358 355 353 352 352 352 351 349 345 342 340 334 328 321 311 301 293 285 280 277 279 291 301 238 209 215 247 270 283 298 312 331 343 344 343 339 334 329 326 322 317 312 310 309 308 309
159 154 148 141 134 128 122 119 118 117 121 129 134 133 130 127 123 115 105 100 100 99 95 87 68 25 356 344 353 13 145 159 145 72 33 11 1 356 351 347 346 345 346 349 351 351 349 347 348 350 347 344 341 333 326 320 308 289 258 247 265 289 247 240 254 269 283 299 309 312 320 330 335 337 339 340 338 335 330 322 316 312 309 306 305
155 150 144 141 139 136 131 127 126 127 128 132 134 132 129 124 114 105 96 81 69 57 23 346 333 322 316 313 320 340 155 152 134 82 30 3 350 345 342 342 340 340 344 348 349 352 356 0 12 24 28 28 28 24 17 8 352 332 301 278 288 299 290 285 287 293 303 311 311 311 316 323 329 334 338 341 341 340 338 332 325 321 318 312 305
145 144 143 142 141 139 136 133 133 133 130 131 133 131 126 121 119 123 134 130 317 300 305 309 303 300 308 315 332 27 67 111 103 52 11 353 344 339 339 341 340 339 345 350 352 358 7 17 35 47 50 52 52 50 47 46 47 44 35 18 354 329 313 307 305 307 311 309 304 306 312 318 324 329 332 334 336 337 338 334 329 325 323 318 308
138 140 141 141 139 139 140 142 142 138 132 129 131 128 124 129 137 148 170 186 190 180 128 43 31 18 32 67 80 73 70 70 54 27 1 346 343 343 343 345 345 345 350 354 357 3 8 16 31 41 46 50 51 51 51 51 53 53 50 47 43 32 16 2 348 341 335 324 316 317 321 325 327 328 326 325 325 327 330 330 326 324 322 318 307
133 136 140 143 143 142 144 147 147 144 141 137 130 122 120 124 128 124 126 121 108 102 100 91 82 76 81 86 84 82 81 67 42 25 5 354 356 359 359 360 360 1 2 2 6 15 19 24 30 31 33 36 38 40 41 42 43 44 42 40 41 39 35 30 23 17 12 5 357 352 350 347 343 338 335 331 327 326 326 325 324 323 320 314 304
124 134 145 152 154 155 155 156 160 161 161 154 141 126 116 110 109 110 107 102 97 95 94 92 86 79 81 85 83 78 74 63 45 32 24 21 24 25 26 25 24 25 25 24 30 38 40 39 38 34 32 34 33 30 28 28 29 30 30 30 31 30 30 28 23 19 16 15 13 9 6 3 358 353 350 345 339 337 336 332 330 329 323 311 302
84 104 182 193 207 211 202 194 193 190 185 177 162 143 124 110 100 98 97 96 96 95 91 88 85 79 75 78 76 68 61 54 46 42 43 47 50 50 49 47 45 44 42 43 47 49 47 44 41 35 34 36 34 30 31 33 34 32 30 30 29 27 26 26 23 19 16 14 13 10 8 6 3 360 358 354 348 345 343 340 340 340 337 324 308
79 322 271 247 244 238 227 219 212 200 188 179 167 153 136 119 104 95 93 93 93 92 87 82 80 75 69 68 67 64 61 56 53 56 63 67 66 63 59 55 53 51 50 53 56 55 51 49 45 39 38 40 41 44 46 46 43 39 34 31 29 26 25 26 25 24 24 22 19 16 11 6 2 359 357 355 350 346 345 346 345 344 343 338 326
128 277 257 240 236 233 225 218 210 198 187 176 166 157 147 133 118 107 100 95 90 88 82 76 71 69 67 67 67 66 65 62 63 70 75 74 70 67 64 61 58 54 52 56 59 57 53 52 49 44 44 46 50 55 56 52 49 46 42 38 34 30 27 25 24 26 27 25 23 20 15 8 2 358 358 357 352 348 348 348 346 344 343 339 333
129 225 230 221 217 217 210 201 193 183 174 168 163 156 147 137 128 120 112 103 92 82 76 73 70 70 72 75 76 76 75 74 74 74 72 69 67 65 62 59 54 48 48 53 56 55 54 55 56 56 57 57 56 56 57 54 52 50 48 45 40 36 32 29 28 28 28 26 25 23 20 15 9 1 356 356 353 350 349 349 347 344 341 337 333
142 180 194 189 182 177 175 175 171 163 160 160 158 149 138 131 126 123 117 107 93 83 78 76 79 83 86 88 88 85 83 81 78 73 67 61 55 44 35 37 40 42 46 53 58 61 63 65 66 67 67 66 62 59 58 58 56 52 49 46 41 37 35 34 32 31 29 27 26 24 22 20 17 10 1 356 354 352 349 349 349 345 340 337 333
148 158 162 161 155 150 150 154 155 152 152 153 149 139 130 124 121 119 114 105 97 93 91 90 91 91 90 89 86 82 78 75 70 65 58 49 36 24 28 38 45 47 51 58 65 69 72 73 74 74 73 72 69 66 63 61 58 55 51 47 42 39 36 34 31 29 27 25 23 21 20 19 17 15 10 3 356 350 345 343 343 343 342 340 335
145 154 155 152 149 145 143 142 140 138 138 137 135 128 121 118 118 115 110 103 98 98 100 101 101 96 91 86 82 78 76 71 64 57 52 44 37 37 45 53 56 56 59 62 66 69 73 75 75 75 75 74 72 69 66 62 58 54 50 45 41 38 35 31 27 24 22 20 18 16 16 15 14 15 14 7 357 349 344 340 338 337 339 339 338
146 158 156 150 148 143 136 130 129 130 128 126 125 123 119 118 116 109 103 101 102 104 104 104 103 98 92 89 85 81 76 70 62 56 52 48 47 49 53 55 56 57 59 61 63 67 71 73 74 74 74 73 71 68 64 58 53 48 43 39 36 33 29 25 22 20 18 16 13 12 11 10 9 10 10 7 358 348 343 341 337 334 335 337 339
153 157 153 148 141 132 126 124 127 127 124 122 122 122 122 122 119 114 108 106 106 106 104 102 100 98 96 94 89 80 74 70 67 63 58 53 51 52 53 55 56 56 56 56 59 63 66 68 71 72 71 69 66 61 55 50 45 40 36 32 30 26 23 20 17 15 13 11 9 7 7 5 4 4 4 3 357 346 341 340 338 334 332 331 331
147 146 145 142 134 126 125 126 126 124 122 122 124 124 123 121 119 116 112 109 107 105 103 102 102 101 100 95 82 66 67 75 76 70 62 57 56 54 53 53 53 54 55 55 55 56 58 62 67 66 62 57 53 47 42 37 34 32 29 27 25 22 19 16 12 9 8 7 5 5 5 4 1 0 360 358 352 344 339 338 335 333 330 326 325
139 137 136 134 130 127 125 123 121 121 122 123 123 122 120 118 117 115 114 113 111 109 104 102 101 99 96 86 64 56 73 87 87 77 67 65 65 60 54 51 49 49 53 53 51 50 50 54 59 57 51 45 40 35 31 28 26 26 25 23 21 19 15 12 9 6 5 5 4 4 5 4 2 0 358 356 352 348 344 341 338 337 334 329 327
137 132 127 124 123 122 120 118 118 119 120 119 118 116 117 119 119 118 117 116 114 109 104 101 100 95 84 62 47 68 88 94 92 83 75 71 67 59 51 43 31 24 26 30 28 22 17 21 36 39 30 28 24 21 19 19 20 21 21 20 18 16 12 10 8 7 7 7 6 5 5 4 2 1 359 357 355 353 350 348 346 343 338 335 334
130 125 122 120 120 120 120 121 121 119 117 116 115 116 119 122 122 121 120 118 116 112 108 104 99 87 69 50 43 82 103 107 105 94 76 61 50 39 26 10 351 336 328 322 320 319 316 311 307 311 319 328 340 348 357 6 12 16 17 16 15 12 9 8 8 8 8 8 7 7 6 4 1 358 357 357 355 351 349 347 345 342 338 335 336
127 124 122 121 121 121 122 124 123 121 120 120 120 123 126 127 127 127 126 124 120 114 107 99 89 75 64 55 53 64 102 135 132 102 56 32 23 15 7 358 347 334 322 310 300 293 294 296 294 293 293 296 302 313 330 349 1 7 11 12 11 9 8 8 8 8 6 5 5 6 7 7 4 1 359 356 353 349 346 344 341 338 335 333 333
131 128 125 123 123 123 123 124 123 124 126 128 129 131 134 134 133 132 129 125 119 111 101 91 81 72 66 64 64 66 73 92 95 70 41 27 15 7 1 357 352 345 338 329 315 300 295 295 293 290 288 287 287 292 306 331 347 359 6 7 6 5 7 7 6 3 1 359 359 1 3 4 5 4 360 355 352 350 347 344 341 337 332 329 327
132 130 128 126 125 124 124 125 126 128 129 130 131 132 134 133 131 128 125 123 118 111 105 100 96 94 92 90 88 89 88 83 68 43 19 3 352 349 348 347 345 343 343 344 337 323 311 306 301 296 291 286 283 285 298 319 335 347 355 357 357 359 3 4 0 358 357 354 352 353 353 354 355 356 353 349 349 348 347 344 340 335 330 328 326
134 132 130 129 128 127 127 127 127 127 126 125 124 123 122 122 124 123 123 123 120 116 116 116 112 106 101 98 96 92 78 39 360 346 340 330 324 325 328 330 332 335 338 341 340 333 325 317 310 302 294 287 283 283 291 306 320 331 339 343 346 352 357 358 356 355 354 351 347 345 344 341 341 342 343 343 343 342 342 342 339 334 332 332 329
132 131 131 131 130 129 128 127 125 123 121 118 115 113 111 111 113 114 115 114 113 113 116 116 111 103 95 86 67 21 355 343 336 336 335 329 326 326 327 327 330 333 333 333 331 327 322 317 310 303 296 289 283 280 284 294 304 313 322 330 338 343 345 347 349 351 351 349 346 342 338 334 331 330 332 334 335 336 337 339 337 334 334 332 328
127 128 130 131 131 129 128 126 122 119 117 113 109 107 107 105 104 106 106 100 96 94 91 84 74 53 25 4 345 335 335 335 334 334 334 332 331 330 329 327 327 326 326 327 327 325 322 318 312 304 297 290 284 280 282 287 293 301 312 323 331 334 332 333 336 340 343 345 345 342 338 334 329 326 327 329 330 331 333 334 332 330 331 329 327
126 128 128 129 128 126 124 121 118 116 114 112 110 109 110 111 111 111 105 94 84 75 61 45 30 15 1 350 340 334 333 332 330 329 330 330 329 327 323 320 319 320 322 324 323 321 319 316 312 306 300 293 287 283 283 285 289 295 304 311 316 319 320 319 320 326 332 337 340 340 339 336 332 329 328 328 329 329 329 329 327 327 329 329 329
126 125 124 123 122 120 119 118 116 115 113 111 109 109 110 113 115 112 99 80 63 53 44 33 23 12 357 346 340 335 332 330 328 327 325 324 322 318 315 313 313 315 317 318 318 316 315 314 312 310 305 299 293 289 288 288 289 292 296 299 300 301 303 305 307 312 321 328 333 336 336 335 332 329 327 328 329 329 326 323 324 327 329 328 327